1390348832879,1.02056
1390348892878,1.02039
1390348952878,1.03093
1390349012878,1.02143
1390349072878,1.02061
1390349132878,1.02203
1390349192878,1.02260
1390349252878,1.02247
1390349312878,1.01810
1390349372878,1.02531
1390349432878,1.02627
1390349492878,1.02873
1390349552878,1.02643
1390349612878,1.02094
1390349672878,1.02285
1390349732878,1.02399
1390349792878,1.02617
1390349852878,1.01864
1390349912878,1.01657
1390349972878,1.02817
1390350032878,1.01822
1390350092878,1.02446
1390350152879,1.02238
1390350212878,1.02720
1390350272878,1.02775
1390350332878,1.02271
1390350392878,1.02366
1390350452878,1.02128
1390350512878,1.01756
1390350572878,1.00663
1390350632878,1.01472
1390350692878,1.02941
1390350752878,1.01434
1390350812878,1.02143
1390350872878,1.02048
1390350932878,1.01984
1390350992878,1.01031
1390351052878,1.01603
1390351112878,1.02066
1390351172878,1.01815
1390351232878,1.01305
1390351292878,1.01652
1390351352878,1.01338
1390351412878,1.01386
1390351472879,1.01566
1390351532879,1.01909
1390351592878,1.01719
1390351652878,1.01341
1390351712878,1.01184
1390351772878,0.999004
1390351832878,1.01070
1390351892878,1.00733
1390351952878,1.00412
1390352012878,1.00865
1390352072878,1.01054
1390352132878,1.01541
1390352192878,1.01500
1390352252878,1.00784
1390352312878,1.00302
1390352372878,1.00963
1390352432889,1.00405
1390352492889,1.01035
1390352552888,1.00908
1390352612888,1.00909
1390352672888,1.00738
1390352732888,1.00346
1390352792888,1.01214
1390352852888,1.00411
1390352912888,1.00633
1390352972888,1.00108
1390353032888,0.996672
1390353092888,1.00492
1390353152888,1.00467
1390353212888,1.01013
1390353272888,1.00374
1390353332888,1.00353
1390353392888,1.00067
1390353452888,1.00687
1390353512888,0.999142
1390353572889,1.00640
1390353632889,0.998504
1390353692889,0.998221
1390353752889,0.997829
1390353812889,1.00037
1390353872889,1.00304
1390353932888,0.999063
1390353992888,1.00176
1390354052888,0.997319
1390354112888,1.00656
1390354172888,1.00095
1390354232888,1.00355
1390354292888,1.00084
1390354352888,1.00262
1390354412888,1.00727
1390354472888,1.00368
1390354532888,1.00592
1390354592888,1.00684
1390354652888,0.996774
1390354712888,1.00703
1390354772888,0.994487
1390354832888,1.01254
1390354892888,1.00581
1390354952889,1.00322
1390355012889,1.00500
1390355072889,0.998337
1390355132889,1.01240
1390355192889,1.01582
1390355252888,0.992021
1390355312888,1.00692
1390355372888,1.00347
1390355432888,1.00461
1390355492888,1.00554
1390355552888,1.00624
1390355612888,1.00487
1390355672888,1.00943
1390355732888,1.00439
1390355792888,1.00765
1390355852888,1.00898
1390355912888,1.00355
1390355972888,1.00937
1390356032899,1.00650
1390356092899,1.00946
1390356152899,1.00649
1390356212899,1.00694
1390356272899,1.00998
1390356332899,1.00613
1390356392899,1.00133
1390356452899,1.00904
1390356512899,1.00106
1390356572899,1.00300
1390356632899,1.00424
1390356692899,1.01252
1390356752899,1.00359
1390356812899,1.00669
1390356872899,1.00195
1390356932899,1.01158
1390356992899,1.01018
1390357052899,1.00539
1390357112899,1.00730
1390357172899,1.00246
1390357232899,1.00567
1390357292899,1.01513
1390357352899,1.01116
1390357412899,1.01237
1390357472899,1.00427
1390357532899,1.00272
1390357592899,1.01993
1390357652899,1.00856
1390357712899,1.01205
1390357772899,1.00642
1390357832899,1.01636
1390357892899,1.01779
1390357952899,1.00880
1390358012899,1.01132
1390358072899,1.01892
1390358132899,1.01389
1390358192899,1.00735
1390358252899,1.01417
1390358312899,1.01865
1390358372899,1.00730
1390358432899,1.00497
1390358492899,1.01370
1390358552899,1.02262
1390358612899,1.01106
1390358672899,1.02311
1390358732899,1.01481
1390358792899,1.01220
1390358852899,1.01656
1390358912899,1.01432
1390358972899,1.00140
1390359032899,1.00987
1390359092899,1.01043
1390359152899,1.01090
1390359212899,1.00670
1390359272899,1.00658
1390359332899,1.00978
1390359392899,1.00297
1390359452899,1.01225
1390359512899,1.00566
1390359572899,1.00414
1390359632909,1.00396
1390359692909,1.00729
1390359752909,1.00838
1390359812909,1.00869
1390359872909,1.00511
1390359932909,1.00172
1390359992909,1.00080
1390360052909,0.996310
1390360112909,1.00860
1390360172909,1.00601
1390360232909,1.00115
1390360292909,0.997306
1390360352909,1.00191
1390360412909,1.00767
1390360472909,1.00523
1390360532909,1.00440
1390360592909,1.00512
1390360652909,1.00755
1390360712909,1.00416
1390360772909,1.00387
1390360832909,1.00484
1390360892909,1.01094
1390360952909,0.999167
1390361012909,1.00845
1390361072909,1.00984
1390361132909,1.00652
1390361192909,0.999940
1390361252909,1.00424
1390361312909,1.00078
1390361372909,0.997973
1390361432909,1.00002
1390361492909,1.00776
1390361552909,1.00491
1390361612909,1.01077
1390361672909,1.00020
1390361732909,1.00703
1390361792909,1.00221
1390361852909,1.00430
1390361912909,1.00227
1390361972909,1.00039
1390362032909,1.01000
1390362092909,1.00811
1390362152909,0.990728
1390362212909,1.00014
1390362272909,1.00380
1390362332909,0.999307
1390362392909,1.01383
1390362452909,1.01571
1390362512909,1.00880
1390362572909,1.01949
1390362632909,1.01089
1390362692909,0.997653
1390362752909,1.00190
1390362812909,1.01355
1390362872909,1.00721
1390362932909,1.01961
1390362992909,1.01166
1390363052909,1.01226
1390363112909,1.01295
1390363172909,1.01549
1390363232919,1.01415
1390363292919,1.00881
1390363352919,1.00304
1390363412919,1.00220
1390363472919,1.01321
1390363532919,1.01611
1390363592919,1.01128
1390363652919,1.00132
1390363712919,1.01076
1390363772919,1.01174
1390363832919,1.01310
1390363892919,1.01418
1390363952919,1.01662
1390364012919,1.00893
1390364072919,1.01722
1390364132919,1.01856
1390364192919,1.02369
1390364252919,1.01415
1390364312919,1.02185
1390364372919,1.01592
1390364432919,1.01376
1390364492919,1.02357
1390364552919,1.02030
1390364612919,1.02670
1390364672919,1.01620
1390364732919,1.01663
1390364792919,1.02116
1390364852919,1.02817
1390364912919,1.02776
1390364972919,1.02887
1390365032919,1.01976
1390365092919,1.03345
1390365152919,1.02869
1390365212919,1.03218
1390365272919,1.03034
1390365332919,1.02229
1390365392919,1.02434
1390365452919,1.02813
1390365512919,1.02365
1390365572919,1.02460
1390365632919,1.02659
1390365692919,1.01585
1390365752919,1.01548
1390365812919,1.02423
1390365872919,1.02082
1390365932919,1.02477
1390365992919,1.01826
1390366052919,1.01778
1390366112919,1.02137
1390366172919,1.01857
1390366232919,1.01817
1390366292919,1.01500
1390366352919,1.01768
1390366412919,1.01790
1390366472919,1.02183
1390366532919,1.02054
1390366592919,1.01554
1390366652919,1.01823
1390366712919,1.01405
1390366772919,1.01698
1390366832930,1.01567
1390366892930,1.01911
1390366952930,1.02233
1390367012930,1.01826
1390367072930,1.01824
1390367132930,1.01748
1390367192930,1.02262
1390367252930,1.01949
1390367312930,1.02102
1390367372930,1.02165
1390367432930,1.02212
1390367492930,1.02280
1390367552930,1.02158
1390367612930,1.02085
1390367672930,1.01958
1390367732930,1.02333
1390367792930,1.01272
1390367852930,1.02649
1390367912930,1.01908
1390367972930,1.02253
1390368032930,1.02460
1390368092930,1.03722
1390368152930,1.03278
1390368212930,1.03177
1390368272930,1.04139
1390368332930,1.03440
1390368392930,1.02376
1390368452930,1.02172
1390368512930,1.01768
1390368572930,1.01953
1390368632930,1.01411
1390368692930,1.02222
1390368752930,1.01600
1390368812930,1.02127
1390368872930,1.02653
1390368932930,1.01974
1390368992930,1.01529
1390369052930,1.02015
1390369112930,1.01797
1390369172930,1.01566
1390369232930,1.01819
1390369292930,1.01537
1390369352930,1.01228
1390369412930,1.01475
1390369472930,1.02000
1390369532930,1.00992
1390369592930,1.01326
1390369652930,1.00890
1390369712930,1.01247
1390369772930,1.01316
1390369832930,1.00708
1390369892930,1.00837
1390369952930,1.01140
1390370012930,1.01542
1390370072930,1.01522
1390370132930,1.01539
1390370192930,1.00528
1390370252930,1.00436
1390370312930,1.01307
1390370372930,1.01704
1390370432941,1.00407
1390370492941,1.00783
1390370552941,1.01256
1390370612941,1.01145
1390370672941,1.00490
1390370732941,1.01139
1390370792941,1.00565
1390370852941,1.01266
1390370912941,1.01279
1390370972941,1.01071
1390371032941,1.00772
1390371092941,1.00594
1390371152941,1.00304
1390371212941,1.00866
1390371272941,1.00425
1390371332941,1.00137
1390371392941,1.00916
1390371452941,1.00391
1390371512941,1.00404
1390371572941,1.00642
1390371632941,1.00820
1390371692941,1.00570
1390371752941,1.01012
1390371812941,1.00744
1390371872941,1.00313
1390371932941,1.00580
1390371992941,1.01665
1390372052941,1.00522
1390372112941,1.00348
1390372172941,1.01416
1390372232941,1.00317
1390372292941,1.01617
1390372352941,1.00112
1390372412941,1.01178
1390372472941,1.00537
1390372532941,1.00859
1390372592941,1.00817
1390372652941,1.01205
1390372712941,1.01194
1390372772941,1.00794
1390372832941,1.00243
1390372892941,1.00865
1390372952941,1.00790
1390373012941,1.01586
1390373072941,1.00997
1390373132941,1.00630
1390373192941,1.01082
1390373252941,1.01722
1390373312941,1.00534
1390373372941,1.00930
1390373432941,1.02508
1390373492941,1.02044
1390373552941,1.01034
1390373612941,1.01395
1390373672941,1.01357
1390373732941,1.02324
1390373792941,1.01903
1390373852941,1.00937
1390373912941,1.01633
1390373972941,1.01389
1390374032952,1.01038
1390374092952,1.01080
1390374152952,1.02065
1390374212952,1.01552
1390374272952,1.01293
1390374332952,1.02272
1390374392952,1.01894
1390374452952,1.01717
1390374512952,1.02889
1390374572952,1.02740
1390374632952,1.01510
1390374692952,1.02253
1390374752952,1.01994
1390374812952,1.02903
1390374872952,1.01984
1390374932952,1.01735
1390374992952,1.02304
1390375052952,1.03157
1390375112952,1.02585
1390375172952,1.02797
1390375232952,1.03510
1390375292952,1.03146
1390375352952,1.02878
1390375412952,1.02653
1390375472952,1.03426
1390375532952,1.03017
1390375592952,1.02510
1390375652952,1.03015
1390375712952,1.03087
1390375772952,1.03302
1390375832952,1.04800
1390375892952,1.03571
1390375952952,1.04702
1390376012952,1.05451
1390376072952,1.05607
1390376132952,1.04682
1390376192952,1.04927
1390376252952,1.04950
1390376312952,1.04783
1390376372952,1.04671
1390376432952,1.03609
1390376492952,1.02725
1390376552952,1.02648
1390376612952,1.03182
1390376672952,1.03314
1390376732952,1.02671
1390376792952,1.02717
1390376852952,1.02659
1390376912952,1.01672
1390376972952,1.02165
1390377032952,1.02014
1390377092952,1.02303
1390377152952,1.02137
1390377212952,1.01267
1390377272952,1.00646
1390377332952,1.00908
1390377392952,1.01396
1390377452952,1.01881
1390377512952,1.01295
1390377572952,1.01981
1390377632963,1.00766
1390377692963,1.02027
1390377752963,1.01129
1390377812963,1.00345
1390377872963,1.01752
1390377932963,1.01283
1390377992963,1.00359
1390378052963,1.01421
1390378112963,1.00704
1390378172963,1.00911
1390378232963,1.00951
1390378292963,1.00801
1390378352963,1.01102
1390378412963,1.01975
1390378472963,1.01437
1390378532963,1.01532
1390378592963,1.01431
1390378652963,1.00828
1390378712963,1.01236
1390378772963,1.01356
1390378832963,1.01840
1390378892963,1.01837
1390378952963,1.01558
1390379012963,1.00930
1390379072963,1.02073
1390379132963,1.01605
1390379192963,1.01539
1390379252963,1.00901
1390379312963,1.01023
1390379372963,1.00633
1390379432963,1.00455
1390379492963,1.01268
1390379552963,1.00706
1390379612963,1.00964
1390379672963,1.00814
1390379732963,1.00369
1390379792963,1.00244
1390379852963,1.00741
1390379912963,0.996342
1390379972963,1.00808
1390380032963,1.00163
1390380092963,0.997030
1390380152963,0.994736
1390380212963,1.00328
1390380272963,1.00309
1390380332963,1.00216
1390380392963,1.00714
1390380452963,0.996674
1390380512963,1.00281
1390380572963,0.994569
1390380632963,1.00743
1390380692963,0.998691
1390380752963,1.00058
1390380812963,1.00279
1390380872963,0.996445
1390380932963,1.00679
1390380992963,0.997860
1390381052963,0.992800
1390381112963,1.00181
1390381172963,1.02240
1390381232974,0.994734
1390381292974,0.999891
1390381352974,0.999678
1390381412974,0.996470
1390381472974,1.00018
1390381532974,0.996906
1390381592974,0.996978
1390381652974,1.00055
1390381712974,0.996465
1390381772974,0.999803
1390381832974,1.00143
1390381892974,1.00102
1390381952974,0.999650
1390382012974,0.999601
1390382072974,0.993672
1390382132974,0.998268
1390382192974,1.00061
1390382252974,0.992830
1390382312974,0.997403
1390382372974,0.998957
1390382432974,0.996885
1390382492974,0.996062
1390382552974,0.989961
1390382612974,0.993371
1390382672974,0.995007
1390382732974,0.997131
1390382792974,0.997278
1390382852974,0.996874
1390382912974,0.998232
1390382972974,0.992004
1390383032974,0.993373
1390383092974,0.994266
1390383152974,0.995452
1390383212974,0.995992
1390383272974,0.989998
1390383332974,0.988972
1390383392974,0.997101
1390383452974,0.995059
1390383512974,0.990412
1390383572974,0.988045
1390383632974,0.994119
1390383692974,0.987570
1390383752974,0.990264
1390383812974,0.989955
1390383872974,0.991961
1390383932974,0.988382
1390383992974,0.998942
1390384052974,0.990681
1390384112974,0.990419
1390384172974,0.997078
1390384232974,1.00031
1390384292974,0.993348
1390384352974,0.993220
1390384412974,0.994628
1390384472974,0.990681
1390384532974,0.989919
1390384592974,0.988046
1390384652974,0.988211
1390384712974,0.992546
1390384772974,0.994354
1390384832985,0.996447
1390384892985,0.993227
1390384952985,0.988110
1390385012985,0.994462
1390385072985,0.996453
1390385132985,0.996608
1390385192985,0.995005
1390385252985,0.993830
1390385312985,0.994206
1390385372985,0.993448
1390385432985,0.999743
1390385492985,0.997969
1390385552985,0.999881
1390385612985,0.991315
1390385672985,0.997997
1390385732985,1.00329
1390385792985,1.00225
1390385852985,0.998528
1390385912985,1.01185
1390385972985,1.00638
1390386032985,1.00221
1390386092985,1.00880
1390386152985,1.00970
1390386212985,1.00519
1390386272985,1.00166
1390386332985,1.00063
1390386392985,1.00950
1390386452985,1.00243
1390386512985,0.996692
1390386572985,1.00587
1390386632985,0.995307
1390386692985,1.00132
1390386752985,0.993144
1390386812985,1.00407
1390386872985,0.998692
1390386932985,1.00724
1390386992985,0.999045
1390387052985,0.996931
1390387112985,0.997705
1390387172985,1.00300
1390387232985,0.997507
1390387292985,1.00058
1390387352985,0.998840
1390387412985,1.00391
1390387472985,0.997057
1390387532985,0.995231
1390387592985,0.999561
1390387652985,0.993546
1390387712985,1.00052
1390387772985,1.00148
1390387832985,1.00207
1390387892985,1.01167
1390387952985,1.00161
1390388012985,1.00035
1390388072985,1.00376
1390388132985,0.997559
1390388192985,1.00390
1390388252985,1.00093
1390388312985,0.999647
1390388372985,1.00460
1390388432996,1.00440
1390388492996,0.998453
1390388552996,1.00158
1390388612996,0.999094
1390388672996,1.00282
1390388732996,0.987946
1390388792996,1.00026
1390388852996,0.991466
1390388912996,1.00114
1390388972996,1.00253
1390389032996,1.00209
1390389092996,0.994556
1390389152996,0.990496
1390389212996,0.995598
1390389272996,0.989713
1390389332996,0.990836
1390389392996,0.994260
1390389452996,0.983508
1390389512996,0.994032
1390389572996,0.991151
1390389632996,0.992766
1390389692996,0.989796
1390389752996,0.987953
1390389812996,0.990707
1390389872996,0.994199
1390389932996,0.993103
1390389992996,0.982212
1390390052996,0.994270
1390390112996,0.994204
1390390172996,0.991782
1390390232996,1.00200
1390390292996,1.00196
1390390352996,0.993101
1390390412996,0.997195
1390390472996,0.994422
1390390532996,0.990428
1390390592996,0.992839
1390390652996,0.990988
1390390712996,0.995888
1390390772996,1.00089
1390390832996,0.994653
1390390892996,0.989803
1390390952996,0.997701
1390391012996,0.990432
1390391072996,0.997092
1390391132996,0.999283
1390391192996,1.00232
1390391252996,0.999852
1390391312996,0.996789
1390391372996,0.996359
1390391432996,0.997850
1390391492996,0.996827
1390391552996,1.00334
1390391612996,0.998854
1390391672996,0.991828
1390391732996,0.997806
1390391792996,0.993296
1390391852996,0.997547
1390391912996,0.990630
1390391972996,0.998460
1390392033008,0.994435
1390392093008,1.00084
1390392153008,0.991939
1390392213008,1.00216
1390392273008,0.988520
1390392333008,0.998417
1390392393008,0.987764
1390392453008,1.00490
1390392513008,0.998211
1390392573008,0.996993
1390392633008,0.989880
1390392693008,0.995750
1390392753008,1.00223
1390392813008,0.994402
1390392873008,1.00363
1390392933008,1.00574
1390392993008,0.998857
1390393053008,0.993586
1390393113008,0.996522
1390393173008,0.995814
1390393233008,0.995959
1390393293008,1.00930
1390393353008,1.01931
1390393413008,1.01478
1390393473008,1.00597
1390393533008,1.00309
1390393593008,1.00461
1390393653008,1.00034
1390393713008,1.00696
1390393773008,0.994828
1390393833008,1.00514
1390393893008,1.00861
1390393953008,1.00626
1390394013008,1.00019
1390394073008,1.00358
1390394133008,0.993314
1390394193008,1.00611
1390394253008,0.991719
1390394313008,0.998648
1390394373008,0.991238
1390394433008,0.992801
1390394493008,0.990142
1390394553008,0.990338
1390394613008,0.988085
1390394673008,1.00453
1390394733008,1.00364
1390394793008,0.993450
1390394853008,0.997886
1390394913008,1.00765
1390394973008,0.991563
1390395033008,0.987929
1390395093008,0.999310
1390395153008,1.00036
1390395213008,0.992979
1390395273008,0.988109
1390395333008,0.992716
1390395393008,0.990059
1390395453008,0.994338
1390395513008,0.998597
1390395573008,0.995513
1390395633019,0.995557
1390395693019,0.996125
1390395753019,0.991205
1390395813019,0.995773
1390395873019,0.993522
1390395933019,0.992791
1390395993019,0.989057
1390396053019,0.988935
1390396113019,0.995503
1390396173019,0.992937
1390396233019,0.987710
1390396293019,0.995096
1390396353019,0.980049
1390396413019,0.988811
1390396473019,0.988354
1390396533019,0.991579
1390396593019,0.992150
1390396653019,0.985651
1390396713019,0.996560
1390396773019,0.991538
1390396833019,0.987302
1390396893019,0.993571
1390396953019,0.998169
1390397013019,0.993408
1390397073019,0.984464
1390397133019,0.985250
1390397193019,0.985503
1390397253019,0.992254
1390397313019,0.988570
1390397373019,0.990476
1390397433019,0.992516
1390397493019,0.992670
1390397553019,0.987640
1390397613019,0.993715
1390397673019,0.991858
1390397733019,0.985038
1390397793019,0.992092
1390397853019,0.996441
1390397913019,0.999169
1390397973019,0.995634
1390398033019,0.991640
1390398093019,0.994662
1390398153019,0.990144
1390398213019,0.989995
1390398273019,0.994900
1390398333019,0.988212
1390398393019,1.00461
1390398453019,0.993303
1390398513019,0.997353
1390398573019,0.996489
1390398633019,0.998737
1390398693019,0.996677
1390398753019,0.993775
1390398813019,0.992369
1390398873019,0.999022
1390398933019,1.00225
1390398993019,0.994873
1390399053019,0.996569
1390399113019,0.998384
1390399173019,0.991918
1390399233030,0.993121
1390399293030,0.994979
1390399353030,0.989833
1390399413030,1.00246
1390399473030,1.00003
1390399533030,0.995255
1390399593030,1.00119
1390399653030,0.990578
1390399713030,0.995447
1390399773030,0.987509
1390399833030,0.993103
1390399893030,0.994093
1390399953030,0.989410
1390400013030,0.983248
1390400073030,0.986515
1390400133030,0.989501
1390400193030,0.990635
1390400253030,0.988941
1390400313030,0.988233
1390400373030,0.990074
1390400433030,0.991394
1390400493030,0.993164
1390400553030,0.989005
1390400613030,0.993098
1390400673030,0.986922
1390400733030,0.989001
1390400793030,0.985923
1390400853030,0.986159
1390400913030,0.980834
1390400973030,0.987257
1390401033030,0.986234
1390401093030,0.989440
1390401153030,0.985658
1390401213030,0.986482
1390401273030,0.994318
1390401333030,0.985677
1390401393030,0.985024
1390401453030,0.991021
1390401513030,0.995326
1390401573030,0.986725
1390401633030,0.994068
1390401693030,0.993852
1390401753030,0.989954
1390401813030,0.988755
1390401873030,0.979577
1390401933030,0.989126
1390401993030,0.988254
1390402053030,0.987515
1390402113030,0.985884
1390402173030,0.986633
1390402233030,0.987739
1390402293030,0.982651
1390402353030,0.978008
1390402413030,0.990536
1390402473030,0.985355
1390402533030,0.985354
1390402593030,0.985489
1390402653030,0.990655
1390402713030,0.977355
1390402773030,0.982476
1390402833041,0.977473
1390402893041,0.983142
1390402953041,0.975847
1390403013041,0.977126
1390403073041,0.980896
1390403133041,0.983491
1390403193041,0.978553
1390403253041,0.980875
1390403313041,0.986776
1390403373041,0.981384
1390403433041,0.976707
1390403493041,0.977972
1390403553041,0.984023
1390403613041,0.980081
1390403673041,0.979666
1390403733041,0.972259
1390403793041,0.980245
1390403853041,0.986077
1390403913041,0.990648
1390403973041,0.985325
1390404033041,0.978250
1390404093041,0.981481
1390404153041,0.980901
1390404213041,0.983582
1390404273041,0.974951
1390404333041,0.986892
1390404393041,0.978792
1390404453041,0.985377
1390404513041,0.988435
1390404573041,0.982288
1390404633041,0.986837
1390404693041,0.996418
1390404753041,0.989117
1390404813041,0.991566
1390404873041,0.991127
1390404933041,0.990721
1390404993041,0.992973
1390405053041,0.995937
1390405113041,0.989258
1390405173041,0.996280
1390405233041,1.00099
1390405293041,0.995902
1390405353041,0.994125
1390405413041,0.990333
1390405473041,0.990378
1390405533041,0.988728
1390405593041,0.986309
1390405653041,0.983149
1390405713041,0.986827
1390405773041,0.987293
1390405833041,0.979493
1390405893041,0.985910
1390405953041,0.983083
1390406013041,0.984528
1390406073041,0.981243
1390406133041,0.982067
1390406193041,0.980051
1390406253041,0.973408
1390406313041,0.982671
1390406373041,0.981360
1390406433052,0.987435
1390406493052,0.978120
1390406553052,0.977409
1390406613052,0.983468
1390406673052,0.979799
1390406733052,0.980418
1390406793052,0.979380
1390406853052,0.981686
1390406913052,0.982116
1390406973052,0.982289
1390407033052,0.981466
1390407093052,0.981863
1390407153052,0.982545
1390407213052,0.985205
1390407273052,0.989512
1390407333052,0.988339
1390407393052,0.979072
1390407453052,0.982024
1390407513052,0.980062
1390407573052,0.983957
1390407633052,0.982744
1390407693052,0.980287
1390407753052,0.985726
1390407813052,0.978409
1390407873052,0.979058
1390407933052,0.974475
1390407993052,0.984392
1390408053052,0.988483
1390408113052,0.978648
1390408173052,0.979612
1390408233052,0.980353
1390408293052,0.977077
1390408353052,0.982347
1390408413052,0.977257
1390408473052,0.981315
1390408533052,0.979681
1390408593052,0.982072
1390408653052,0.978554
1390408713052,0.981754
1390408773052,0.987213
1390408833052,0.981457
1390408893052,0.981332
1390408953052,0.979840
1390409013052,0.979602
1390409073052,0.975202
1390409133052,0.975208
1390409193052,0.980726
1390409253052,0.973850
1390409313052,0.976263
1390409373052,0.973375
1390409433052,0.969085
1390409493052,0.976782
1390409553052,0.978121
1390409613052,0.980061
1390409673052,0.977679
1390409733052,0.969553
1390409793052,0.967405
1390409853052,0.983878
1390409913052,0.970275
1390409973052,0.975207
1390410033063,0.965632
1390410093063,0.976787
1390410153063,0.976732
1390410213063,0.970649
1390410273063,0.973261
1390410333063,0.979770
1390410393063,0.976294
1390410453063,0.978273
1390410513063,0.975536
1390410573063,0.980866
1390410633063,0.980855
1390410693063,0.977854
1390411233063,0.972926
1390411293063,0.982434
1390411353063,0.975762
1390411413063,0.978784
1390411473063,0.975538
1390411533063,0.978708
1390411593063,0.979439
1390411653063,0.982878
1390411713063,0.977923
1390411773063,0.980134
1390411833063,0.983123
1390411893063,0.976679
1390411953063,0.984929
1390412013063,0.989050
1390412073063,0.998362
1390412133063,0.988219
1390412193063,1.00018
1390412253063,0.990356
1390412313063,0.994085
1390412373063,0.996512
1390412433063,1.00455
1390412493063,0.998216
1390412553063,1.00475
1390412613063,1.00646
1390412673063,1.01517
1390412733063,1.01251
1390412793063,1.01084
1390412853063,1.00881
1390412913063,1.00342
1390412973063,1.00824
1390413033063,1.00028
1390413093063,0.997403
1390413153063,0.999554
1390413213063,0.997678
1390413273063,0.988596
1390413333063,0.994485
1390413393063,0.991523